Location: Boiro
(42.6475°N, 8.8834°W)
Time: 23:53:43
(UTC+01:00)

A-11 Canister half - Pass Details

Date: 02 December 2021
Orbit: 1516 x 1684 km, 47.2° (Epoch: 18 January)

Event Time Altitude Azimuth Distance (km) Brightness Sun altitude
Rises 17:16:32 0° 291° (WNW) 4,934 12.1 6.2°
Reaches altitude 10° 17:20:55 10° 275° (W) 3,948 12.0 5.6°
Maximum altitude 17:27:18 19° 235° (SW) 3,269 12.8 4.6°
Drops below altitude 10° 17:33:41 10° 195° (SSW) 3,916 12.0 3.7°
Sets 17:38:04 0° 179° (S) 4,881 12.1 3.0°
